Content
SEND FEEDBACK

Daily
Averages
Monthly
Summary
United States of America

ACKERMAN, MISSISSIPPI


Home > North America > United States > Mississippi
Elevation: 52 feet     Latitude: 33 19N     Longitude: 089 10W

WEATHER
 
SELECT A DAY
Number of Records: 89,951;   Date Range: 9/23/10 - 10/13/14
 
SHARE

PRINT THIS DATA

[ ← Previous Day ]
WEATHER ALMANAC - JANUARY 31, 2013
[ Next Day → ]
[ °C ]   °F
Weather ElementAverageHighLow
Temperature41.5 °F55.4 °F (3:15 pm)30.2 °F (5:55 am)
Dewpoint29.4 °F32 °F (8:15 am)26.6 °F (12:15 pm)
Humidity66.2 %93 % (1:55 am)33 % (3:15 pm)
Barometer30.17 in30.24 in (10:15 am)30.08 in (12:55 am)
Wind Speed4.3 mph12.7 mph (12:55 pm)
Wind Gust19.6 mph (2:15 pm)
Weather ElementAverage
Visibility10 mi
Wind DirectionS (185.1 °)

Weather ElementTotal
Precipitation---
Heating Degree Days22.2 (Base 65)
Averaged from 70 records on January 31, 2013
WEATHER CONDITIONS BREAKOUT
WIND DIRECTION BREAKOUT
WEATHER BY HOUR - JANUARY 31, 2013
[ °C ]   °F
Local TimeTemperatureDewpointHumidityBarometerVisibilityWind DirectionWind SpeedGust SpeedPrecipitationEventsConditions
12:35 AM37.4 °F30.2 °F75 %30.09 in10.0 miWest (280°)4.6 mphClear
12:55 AM35.6 °F30.2 °F81 %30.08 in10.0 miWest (270°)4.6 mphClear
1:15 AM35.6 °F30.2 °F81 %30.08 in10.0 miWest (270°)3.5 mphClear
1:35 AM35.6 °F30.2 °F81 %30.09 in10.0 miCalmClear
1:55 AM32.0 °F30.2 °F93 %30.09 in10.0 miCalmClear
2:15 AM32.0 °F30.2 °F93 %30.08 in10.0 miCalmClear
2:35 AM32.0 °F30.2 °F93 %30.10 in10.0 miCalmClear
2:55 AM32.0 °F30.2 °F93 %30.11 in10.0 miSW (220°)3.5 mphClear
3:15 AM32.0 °F30.2 °F93 %30.11 in10.0 miCalmClear
3:35 AM32.0 °F30.2 °F93 %30.12 in10.0 miSW (220°)3.5 mphClear
3:55 AM32.0 °F30.2 °F93 %30.11 in10.0 miCalmClear
4:15 AM32.0 °F30.2 °F93 %30.12 in10.0 miCalmClear
4:35 AM32.0 °F30.2 °F93 %30.13 in10.0 miCalmClear
4:55 AM32.0 °F28.4 °F87 %30.13 in10.0 miCalmClear
5:15 AM32.0 °F30.2 °F93 %30.14 in10.0 miCalmClear
5:35 AM32.0 °F28.4 °F87 %30.14 in10.0 miCalmClear
5:55 AM30.2 °F28.4 °F93 %30.14 in10.0 miSW (220°)3.5 mphClear
6:15 AM30.2 °F28.4 °F93 %30.14 in10.0 miCalmClear
6:55 AM32.0 °F30.2 °F93 %30.16 in10.0 miWest (270°)3.5 mphClear
7:15 AM32.0 °F30.2 °F93 %30.15 in10.0 miWNW (290°)5.8 mphClear
7:35 AM32.0 °F30.2 °F93 %30.17 in10.0 miWest (280°)3.5 mphClear
7:55 AM33.8 °F30.2 °F87 %30.17 in10.0 miWest (270°)3.5 mphClear
8:15 AM35.6 °F32.0 °F87 %30.18 in10.0 miWSW (250°)3.5 mphClear
8:35 AM35.6 °F32.0 °F87 %30.19 in10.0 miWSW (250°)4.6 mphClear
8:55 AM37.4 °F32.0 °F81 %30.21 in10.0 miWest (260°)4.6 mphClear
9:15 AM39.2 °F32.0 °F75 %30.22 in10.0 miWSW (250°)6.9 mphClear
9:35 AM41.0 °F32.0 °F70 %30.22 in10.0 miWest (260°)4.6 mphClear
9:55 AM42.8 °F30.2 °F61 %30.23 in10.0 miWSW (250°)9.2 mphClear
10:15 AM42.8 °F30.2 °F61 %30.24 in10.0 miWNW (290°)6.9 mphClear
10:35 AM44.6 °F30.2 °F57 %30.24 in10.0 miWest (280°)5.8 mphClear
10:55 AM46.4 °F30.2 °F53 %30.23 in10.0 miWSW (250°)9.2 mphClear
11:15 AM46.4 °F30.2 °F53 %30.22 in10.0 miWSW (250°)6.9 mphClear
11:35 AM48.2 °F28.4 °F46 %30.22 in10.0 miWSW (250°)6.9 mphClear
11:55 AM48.2 °F28.4 °F46 %30.21 in10.0 miNW (310°)6.9 mphClear
12:15 PM50.0 °F26.6 °F40 %30.20 in10.0 miWNW (300°)8.1 mphClear
12:35 PM50.0 °F26.6 °F40 %30.19 in10.0 miWest (260°)4.6 mphClear
12:55 PM51.8 °F26.6 °F38 %30.19 in10.0 miWest (260°)12.7 mph17.3 mphClear
1:15 PM51.8 °F26.6 °F38 %30.18 in10.0 miWSW (250°)10.4 mphClear
1:35 PM53.6 °F26.6 °F35 %30.17 in10.0 miWSW (250°)6.9 mphClear
1:55 PM53.6 °F26.6 °F35 %30.17 in10.0 miWSW (240°)6.9 mphClear
2:15 PM53.6 °F26.6 °F35 %30.17 in10.0 miWNW (290°)9.2 mph19.6 mphClear
2:35 PM53.6 °F28.4 °F38 %30.17 in10.0 miSW (230°)6.9 mphClear
2:55 PM53.6 °F26.6 °F35 %30.16 in10.0 miWSW (250°)6.9 mph17.3 mphClear
3:15 PM55.4 °F26.6 °F33 %30.16 in10.0 miWSW (250°)6.9 mphClear
3:35 PM55.4 °F26.6 °F33 %30.15 in10.0 miWSW (250°)8.1 mph17.3 mphClear
3:55 PM55.4 °F26.6 °F33 %30.15 in10.0 miSW (230°)5.8 mphClear
4:15 PM53.6 °F26.6 °F35 %30.15 in10.0 miWest (260°)6.9 mphClear
4:35 PM53.6 °F26.6 °F35 %30.15 in10.0 miWSW (240°)5.8 mphClear
4:55 PM51.8 °F26.6 °F38 %30.15 in10.0 miSW (230°)5.8 mphClear
5:15 PM51.8 °F26.6 °F38 %30.15 in10.0 miSW (220°)4.6 mphClear
5:35 PM50.0 °F26.6 °F40 %30.15 in10.0 miSW (220°)3.5 mphClear
5:55 PM48.2 °F28.4 °F46 %30.15 in10.0 miSSW (210°)3.5 mphClear
6:15 PM44.6 °F32.0 °F61 %30.16 in10.0 miSSW (210°)3.5 mphClear
6:35 PM42.8 °F30.2 °F61 %30.15 in10.0 miSSW (200°)4.6 mphClear
6:55 PM44.6 °F30.2 °F57 %30.17 in10.0 miSSW (210°)3.5 mphClear
7:15 PM41.0 °F30.2 °F65 %30.17 in10.0 miCalmClear
7:35 PM37.4 °F30.2 °F75 %30.17 in10.0 miCalmClear
7:55 PM37.4 °F32.0 °F81 %30.18 in10.0 miCalmClear
8:15 PM37.4 °F32.0 °F81 %30.19 in10.0 miCalmClear
8:35 PM35.6 °F32.0 °F87 %30.20 in10.0 miSouth (190°)3.5 mphClear
8:55 PM35.6 °F32.0 °F87 %30.20 in10.0 miCalmClear
9:15 PM35.6 °F32.0 °F87 %30.21 in10.0 miSSW (210°)3.5 mphClear
9:35 PM37.4 °F30.2 °F75 %30.21 in10.0 miSSW (210°)3.5 mphClear
9:55 PM41.0 °F30.2 °F65 %30.21 in10.0 miSSW (210°)3.5 mphClear
10:15 PM42.8 °F30.2 °F61 %30.21 in10.0 miSW (220°)4.6 mphClear
10:35 PM42.8 °F30.2 °F61 %30.21 in10.0 miSW (220°)5.8 mphClear
10:55 PM42.8 °F30.2 °F61 %30.21 in10.0 miSW (220°)4.6 mphClear
11:15 PM44.6 °F28.4 °F53 %30.21 in10.0 miSW (220°)5.8 mphClear
11:35 PM44.6 °F28.4 °F53 %30.21 in10.0 miSW (220°)8.1 mphClear
11:55 PM46.4 °F28.4 °F50 %30.22 in10.0 miWSW (240°)5.8 mphClear
Hourly data recorded from KSTF, located miles away from Ackerman, Mississippi







STORIES FROM OUR PARTNERS